AWE623 KATL-KBOS

Flight info

Callsign AWE623
Flight time 1h 53m
Altitude 35000
Route PLMMR3 BURGG Q22 RBV Q419 JFK ROBUC3
Aircraft A320/M-SDE3FGHIRWY/LB1

Departure

Time 2026-05-07 22:26
Airport Hartsfield Jackson Atlanta International Airport (KATL)

Arrival

Time 2026-05-08 00:20
Airport Boston Logan International Airport (KBOS)
Time Latitude Longitude Altitude Speed Heading
2026-05-07 21:53 33.63842 -84.43867 1006 ft 0 kts 270°
2026-05-07 22:13 33.63842 -84.43851 1006 ft 4 kts 264°
2026-05-07 22:14 33.63848 -84.43820 1006 ft 4 kts 241°
2026-05-07 22:14 33.63864 -84.43796 1006 ft 4 kts 209°
2026-05-07 22:14 33.63889 -84.43787 1006 ft 4 kts 182°
2026-05-07 22:14 33.63895 -84.43787 1006 ft 0 kts 180°
2026-05-07 22:19 33.63893 -84.43787 1006 ft 1 kts 180°
2026-05-07 22:19 33.63856 -84.43787 1006 ft 10 kts 180°
2026-05-07 22:19 33.63769 -84.43787 1006 ft 13 kts 180°
2026-05-07 22:20 33.63735 -84.43787 1006 ft 0 kts 180°
2026-05-07 22:20 33.63708 -84.43784 1006 ft 8 kts 170°
2026-05-07 22:20 33.63664 -84.43703 1006 ft 16 kts 90°
2026-05-07 22:21 33.63664 -84.43529 1006 ft 26 kts 90°
2026-05-07 22:21 33.63664 -84.43275 1006 ft 32 kts 89°
2026-05-07 22:21 33.63664 -84.43003 1006 ft 33 kts 89°
2026-05-07 22:21 33.63659 -84.42719 1007 ft 35 kts 95°
2026-05-07 22:22 33.63655 -84.42440 1007 ft 34 kts 90°
2026-05-07 22:22 33.63655 -84.42173 1007 ft 31 kts 89°
2026-05-07 22:22 33.63655 -84.41904 1006 ft 33 kts 90°
2026-05-07 22:22 33.63655 -84.41632 1006 ft 32 kts 90°
2026-05-07 22:23 33.63655 -84.41355 1006 ft 34 kts 90°
2026-05-07 22:23 33.63656 -84.41080 1006 ft 28 kts 91°
2026-05-07 22:23 33.63634 -84.40914 1006 ft 17 kts 145°
2026-05-07 22:23 33.63563 -84.40909 1006 ft 0 kts 181°
2026-05-07 22:24 33.63562 -84.40909 1006 ft 1 kts 181°
2026-05-07 22:24 33.63542 -84.40908 1007 ft 5 kts 178°
2026-05-07 22:25 33.63487 -84.40914 1007 ft 11 kts 199°
2026-05-07 22:25 33.63470 -84.40969 1007 ft 0 kts 272°
2026-05-07 22:25 33.63470 -84.40971 1007 ft 2 kts 272°
2026-05-07 22:25 33.63472 -84.41211 1005 ft 63 kts 270°
2026-05-07 22:26 33.63472 -84.41981 1007 ft 118 kts 270°
2026-05-07 22:26 33.63474 -84.43139 1010 ft 158 kts 270°
2026-05-07 22:26 33.63435 -84.44423 1613 ft 154 kts 263°
2026-05-07 22:26 33.63245 -84.45748 2024 ft 171 kts 264°
2026-05-07 22:27 33.63076 -84.47255 2397 ft 194 kts 266°
2026-05-07 22:27 33.62895 -84.48938 2577 ft 214 kts 257°
2026-05-07 22:27 33.62089 -84.50572 2851 ft 244 kts 236°
2026-05-07 22:27 33.61162 -84.52335 3556 ft 253 kts 245°
2026-05-07 22:28 33.60633 -84.53582 4217 ft 253 kts 246°
2026-05-07 22:28 33.59862 -84.55490 5184 ft 255 kts 243°
2026-05-07 22:28 33.58236 -84.57641 6069 ft 283 kts 217°
2026-05-07 22:28 33.56315 -84.58448 6662 ft 307 kts 191°
2026-05-07 22:29 33.54845 -84.58422 7150 ft 318 kts 180°
2026-05-07 22:29 33.52719 -84.58137 7910 ft 304 kts 180°
2026-05-07 22:29 33.50623 -84.57827 8672 ft 313 kts 174°
2026-05-07 22:29 33.48565 -84.56795 9462 ft 332 kts 150°
2026-05-07 22:30 33.46915 -84.54771 10016 ft 357 kts 125°
2026-05-07 22:30 33.46033 -84.51879 10239 ft 385 kts 99°
2026-05-07 22:30 33.45752 -84.48594 10430 ft 408 kts 93°
2026-05-07 22:30 33.45650 -84.45104 10558 ft 430 kts 90°
2026-05-07 22:31 33.45651 -84.41433 10694 ft 449 kts 86°
2026-05-07 22:31 33.46116 -84.37702 11072 ft 456 kts 73°
2026-05-07 22:31 33.47119 -84.34077 11582 ft 460 kts 63°
2026-05-07 22:31 33.48587 -84.30668 12066 ft 461 kts 52°
2026-05-07 22:32 33.50496 -84.27664 12550 ft 458 kts 40°
2026-05-07 22:32 33.52708 -84.24894 13084 ft 462 kts 38°
2026-05-07 22:32 33.54957 -84.22137 13808 ft 461 kts 37°
2026-05-07 22:32 33.57200 -84.19412 14624 ft 456 kts 37°
2026-05-07 22:33 33.59410 -84.16733 15564 ft 448 kts 37°
2026-05-07 22:33 33.61578 -84.14100 16516 ft 439 kts 37°
2026-05-07 22:33 33.63701 -84.11511 17527 ft 430 kts 37°
2026-05-07 22:33 33.65769 -84.08982 18519 ft 419 kts 37°
2026-05-07 22:34 33.67785 -84.06512 19426 ft 409 kts 36°
2026-05-07 22:34 33.69748 -84.04100 20361 ft 397 kts 36°
2026-05-07 22:34 33.71643 -84.01763 21325 ft 383 kts 36°
2026-05-07 22:34 33.73504 -83.99483 21646 ft 395 kts 36°
2026-05-07 22:35 33.75483 -83.97087 21791 ft 410 kts 36°
2026-05-07 22:35 33.77524 -83.94619 21935 ft 424 kts 36°
2026-05-07 22:35 33.79634 -83.92060 22052 ft 438 kts 37°
2026-05-07 22:35 33.81809 -83.89408 22235 ft 452 kts 37°
2026-05-07 22:36 33.84046 -83.86666 22361 ft 466 kts 37°
2026-05-07 22:36 33.86343 -83.83837 22494 ft 480 kts 37°
2026-05-07 22:36 33.88698 -83.80924 22621 ft 492 kts 38°
2026-05-07 22:36 33.91103 -83.77937 22910 ft 498 kts 38°
2026-05-07 22:37 33.93515 -83.74933 23442 ft 499 kts 38°
2026-05-07 22:37 33.95817 -83.71854 23881 ft 506 kts 45°
2026-05-07 22:37 33.97924 -83.68426 24336 ft 508 kts 46°
2026-05-07 22:37 34.00021 -83.64999 24784 ft 508 kts 46°
2026-05-07 22:38 34.02125 -83.61567 25253 ft 508 kts 46°
2026-05-07 22:38 34.04233 -83.58131 25705 ft 508 kts 46°
2026-05-07 22:38 34.06335 -83.54707 26207 ft 507 kts 45°
2026-05-07 22:38 34.08420 -83.51304 26899 ft 501 kts 45°
2026-05-07 22:39 34.10475 -83.47937 27644 ft 494 kts 45°
2026-05-07 22:39 34.12472 -83.44656 28390 ft 487 kts 44°
2026-05-07 22:39 34.14463 -83.41384 29148 ft 480 kts 44°
2026-05-07 22:39 34.16422 -83.38167 29941 ft 472 kts 43°
2026-05-07 22:40 34.18349 -83.35002 30640 ft 462 kts 43°
2026-05-07 22:40 34.20233 -83.31904 31340 ft 452 kts 43°
2026-05-07 22:40 34.22106 -83.28839 31567 ft 457 kts 43°
2026-05-07 22:40 34.24019 -83.25732 31687 ft 465 kts 43°
2026-05-07 22:41 34.25968 -83.22566 31809 ft 473 kts 44°
2026-05-07 22:41 34.27943 -83.19340 31936 ft 481 kts 44°
2026-05-07 22:41 34.29943 -83.16055 32106 ft 489 kts 44°
2026-05-07 22:41 34.31980 -83.12695 32234 ft 497 kts 44°
2026-05-07 22:42 34.34043 -83.09300 32348 ft 504 kts 44°
2026-05-07 22:42 34.36139 -83.05863 32479 ft 511 kts 44°
2026-05-07 22:42 34.38240 -83.02428 32607 ft 518 kts 44°
2026-05-07 22:42 34.40399 -82.98898 32723 ft 525 kts 45°
2026-05-07 22:43 34.42584 -82.95323 32865 ft 532 kts 45°
2026-05-07 22:43 34.44784 -82.91711 33253 ft 528 kts 45°
2026-05-07 22:43 34.46915 -82.88175 34200 ft 515 kts 45°
2026-05-07 22:43 34.49023 -82.84682 34580 ft 513 kts 45°
2026-05-07 22:44 34.51150 -82.81180 34788 ft 515 kts 45°
2026-05-07 22:44 34.53296 -82.77664 34924 ft 522 kts 44°
2026-05-07 22:44 34.55480 -82.74092 34891 ft 530 kts 44°
2026-05-07 22:45 34.59882 -82.66853 34895 ft 535 kts 45°
2026-05-07 22:45 34.64351 -82.59452 34891 ft 551 kts 45°
2026-05-07 22:46 34.68912 -82.51855 34887 ft 567 kts 46°
2026-05-07 22:46 34.73544 -82.43960 34887 ft 579 kts 47°
2026-05-07 22:47 34.78221 -82.35907 34861 ft 582 kts 47°
2026-05-07 22:47 34.82901 -82.27867 34885 ft 582 kts 46°
2026-05-07 22:48 34.87594 -82.19838 34869 ft 582 kts 46°
2026-05-07 22:48 34.92284 -82.11788 34870 ft 582 kts 47°
2026-05-07 22:49 34.96937 -82.03768 34878 ft 583 kts 47°
2026-05-07 22:49 35.01626 -81.95672 34865 ft 583 kts 46°
2026-05-07 22:50 35.06302 -81.87576 34870 ft 583 kts 46°
2026-05-07 22:50 35.10954 -81.79536 34858 ft 583 kts 46°
2026-05-07 22:51 35.15710 -81.71504 34881 ft 581 kts 44°
2026-05-07 22:51 35.20643 -81.63692 34881 ft 579 kts 43°
2026-05-07 22:52 35.25588 -81.55995 34841 ft 579 kts 43°
2026-05-07 22:52 35.30507 -81.48168 34853 ft 580 kts 44°
2026-05-07 22:53 35.35380 -81.40293 34876 ft 580 kts 44°
2026-05-07 22:53 35.40247 -81.32414 34898 ft 580 kts 44°
2026-05-07 22:54 35.45137 -81.24531 34947 ft 582 kts 44°
2026-05-07 22:54 35.50072 -81.16583 34915 ft 586 kts 44°
2026-05-07 22:55 35.54971 -81.08637 34917 ft 588 kts 44°
2026-05-07 22:55 35.59889 -81.00603 34899 ft 588 kts 44°
2026-05-07 22:56 35.64771 -80.92537 34928 ft 589 kts 45°
2026-05-07 22:56 35.69650 -80.84418 34932 ft 588 kts 45°
2026-05-07 22:57 35.74483 -80.76357 34922 ft 588 kts 44°
2026-05-07 22:57 35.79359 -80.68261 34901 ft 588 kts 44°
2026-05-07 22:58 35.84239 -80.60156 34915 ft 588 kts 44°
2026-05-07 22:58 35.89096 -80.52033 34895 ft 591 kts 45°
2026-05-07 22:59 35.93976 -80.43845 34896 ft 593 kts 45°
2026-05-07 22:59 35.98828 -80.35668 34892 ft 593 kts 45°
2026-05-07 23:00 36.03717 -80.27459 34901 ft 593 kts 44°
2026-05-07 23:00 36.08614 -80.19253 34903 ft 593 kts 45°
2026-05-07 23:01 36.13491 -80.11022 34907 ft 593 kts 45°
2026-05-07 23:01 36.18362 -80.02768 34924 ft 593 kts 45°
2026-05-07 23:02 36.23241 -79.94503 34924 ft 593 kts 45°
2026-05-07 23:02 36.28109 -79.86242 34934 ft 593 kts 45°
2026-05-07 23:03 36.32971 -79.77967 34914 ft 594 kts 45°
2026-05-07 23:03 36.37799 -79.69730 34929 ft 593 kts 45°
2026-05-07 23:04 36.42649 -79.61429 34919 ft 594 kts 45°
2026-05-07 23:04 36.47495 -79.53112 34920 ft 594 kts 45°
2026-05-07 23:05 36.52340 -79.44781 34953 ft 594 kts 45°
2026-05-07 23:05 36.57176 -79.36449 34942 ft 594 kts 46°
2026-05-07 23:06 36.62014 -79.28094 34936 ft 595 kts 46°
2026-05-07 23:06 36.66848 -79.19725 34932 ft 595 kts 46°
2026-05-07 23:07 36.71638 -79.11399 34932 ft 595 kts 46°
2026-05-07 23:07 36.76465 -79.02990 34898 ft 595 kts 46°
2026-05-07 23:08 36.81291 -78.94573 34926 ft 596 kts 46°
2026-05-07 23:08 36.86107 -78.86133 34928 ft 596 kts 46°
2026-05-07 23:09 36.90900 -78.77663 34929 ft 596 kts 46°
2026-05-07 23:09 36.95649 -78.69231 34938 ft 597 kts 46°
2026-05-07 23:10 37.00412 -78.60749 34935 ft 593 kts 46°
2026-05-07 23:10 37.05139 -78.52332 34937 ft 593 kts 46°
2026-05-07 23:11 37.09883 -78.43886 34933 ft 593 kts 46°
2026-05-07 23:11 37.14624 -78.35425 35001 ft 593 kts 46°
2026-05-07 23:12 37.19355 -78.26945 34936 ft 593 kts 47°
2026-05-07 23:12 37.23554 -78.18003 34925 ft 601 kts 53°
2026-05-07 23:13 37.27603 -78.08811 34932 ft 602 kts 54°
2026-05-07 23:13 37.31627 -77.99587 34935 ft 601 kts 54°
2026-05-07 23:14 37.35670 -77.90389 34926 ft 600 kts 54°
2026-05-07 23:14 37.39714 -77.81211 34939 ft 599 kts 54°
2026-05-07 23:15 37.43764 -77.72018 34945 ft 599 kts 54°
2026-05-07 23:15 37.47768 -77.62876 34944 ft 600 kts 54°
2026-05-07 23:16 37.51785 -77.53657 34950 ft 600 kts 54°
2026-05-07 23:16 37.55764 -77.44494 34914 ft 594 kts 55°
2026-05-07 23:17 37.59727 -77.35355 34925 ft 593 kts 55°
2026-05-07 23:17 37.63021 -77.27769 34929 ft 593 kts 55°
2026-05-07 23:18 37.66991 -77.18634 34937 ft 593 kts 52°
2026-05-07 23:18 37.69394 -77.14503 34948 ft 575 kts 37°
2026-05-07 23:18 37.72349 -77.11250 34945 ft 551 kts 21°
2026-05-07 23:18 37.75610 -77.08851 34947 ft 539 kts 15°
2026-05-07 23:19 37.78912 -77.06590 34943 ft 539 kts 15°
2026-05-07 23:19 37.85519 -77.02051 34944 ft 540 kts 15°
2026-05-07 23:20 37.92114 -76.97473 34945 ft 541 kts 16°
2026-05-07 23:20 37.98649 -76.92913 34937 ft 537 kts 17°
2026-05-07 23:21 38.05203 -76.88342 34934 ft 537 kts 17°
2026-05-07 23:21 38.11760 -76.83771 34937 ft 539 kts 17°
2026-05-07 23:22 38.18325 -76.79175 34912 ft 537 kts 18°
2026-05-07 23:22 38.24813 -76.74430 34917 ft 546 kts 26°
2026-05-07 23:23 38.30739 -76.68209 34915 ft 554 kts 31°
2026-05-07 23:23 38.36569 -76.61884 34957 ft 553 kts 32°
2026-05-07 23:24 38.42403 -76.55522 34920 ft 551 kts 32°
2026-05-07 23:24 38.48256 -76.49208 34895 ft 550 kts 31°
2026-05-07 23:25 38.54148 -76.42928 34917 ft 552 kts 31°
2026-05-07 23:25 38.60030 -76.36622 34905 ft 551 kts 32°
2026-05-07 23:26 38.65887 -76.30293 34914 ft 551 kts 32°
2026-05-07 23:26 38.71728 -76.23950 34903 ft 550 kts 32°
2026-05-07 23:27 38.80468 -76.14460 34895 ft 549 kts 32°
2026-05-07 23:27 38.86307 -76.08115 34896 ft 550 kts 32°
2026-05-07 23:28 38.92147 -76.01750 34898 ft 550 kts 32°
2026-05-07 23:28 38.97964 -75.95345 34897 ft 551 kts 33°
2026-05-07 23:29 39.03638 -75.88679 34894 ft 553 kts 36°
2026-05-07 23:29 39.09185 -75.81896 34880 ft 554 kts 36°
2026-05-07 23:30 39.14794 -75.75093 34882 ft 554 kts 36°
2026-05-07 23:30 39.20451 -75.68341 34870 ft 554 kts 35°
2026-05-07 23:31 39.26118 -75.61570 34866 ft 554 kts 35°
2026-05-07 23:31 39.31766 -75.54774 34867 ft 555 kts 35°
2026-05-07 23:32 39.37421 -75.47953 34851 ft 555 kts 35°
2026-05-07 23:32 39.43036 -75.41174 34840 ft 556 kts 36°
2026-05-07 23:33 39.48678 -75.34343 34865 ft 556 kts 36°
2026-05-07 23:33 39.54325 -75.27487 34903 ft 556 kts 36°
2026-05-07 23:34 39.59970 -75.20612 34863 ft 556 kts 36°
2026-05-07 23:34 39.65603 -75.13722 34860 ft 556 kts 36°
2026-05-07 23:35 39.71279 -75.06920 34860 ft 554 kts 33°
2026-05-07 23:35 39.77112 -75.00422 34860 ft 552 kts 32°
2026-05-07 23:36 39.82955 -74.94022 34859 ft 552 kts 33°
2026-05-07 23:36 39.88776 -74.87483 34860 ft 553 kts 33°
2026-05-07 23:37 39.94874 -74.81540 34839 ft 545 kts 27°
2026-05-07 23:37 40.01057 -74.75822 34853 ft 545 kts 26°
2026-05-07 23:38 40.04053 -74.72717 34854 ft 556 kts 37°
2026-05-07 23:38 40.06729 -74.69018 34868 ft 561 kts 41°
2026-05-07 23:38 40.11981 -74.61472 34856 ft 562 kts 41°
2026-05-07 23:39 40.17210 -74.53876 34852 ft 562 kts 41°
2026-05-07 23:39 40.22742 -74.46803 34864 ft 551 kts 31°
2026-05-07 23:40 40.25706 -74.43646 34712 ft 548 kts 31°
2026-05-07 23:40 40.28660 -74.40501 33919 ft 547 kts 31°
2026-05-07 23:40 40.31624 -74.37344 32860 ft 548 kts 31°
2026-05-07 23:40 40.34578 -74.34192 31759 ft 548 kts 31°
2026-05-07 23:41 40.37493 -74.31071 31197 ft 547 kts 31°
2026-05-07 23:41 40.40449 -74.27901 30704 ft 549 kts 31°
2026-05-07 23:41 40.43414 -74.24717 30218 ft 550 kts 32°
2026-05-07 23:41 40.46369 -74.21537 29731 ft 550 kts 32°
2026-05-07 23:42 40.49332 -74.18344 29254 ft 550 kts 32°
2026-05-07 23:42 40.52233 -74.15058 29132 ft 556 kts 39°
2026-05-07 23:42 40.54682 -74.11075 29318 ft 562 kts 52°
2026-05-07 23:42 40.56482 -74.06489 28822 ft 569 kts 68°
2026-05-07 23:43 40.57675 -74.01546 28282 ft 570 kts 71°
2026-05-07 23:43 40.58824 -73.96549 27589 ft 570 kts 72°
2026-05-07 23:43 40.59968 -73.91542 27050 ft 569 kts 72°
2026-05-07 23:43 40.61104 -73.86564 26804 ft 567 kts 72°
2026-05-07 23:44 40.62319 -73.81669 26870 ft 566 kts 66°
2026-05-07 23:44 40.64012 -73.77081 26851 ft 562 kts 56°
2026-05-07 23:44 40.66242 -73.72892 26866 ft 556 kts 46°
2026-05-07 23:44 40.68814 -73.69103 26850 ft 554 kts 43°
2026-05-07 23:45 40.71411 -73.65332 26864 ft 555 kts 43°
2026-05-07 23:45 40.73998 -73.61547 26857 ft 555 kts 44°
2026-05-07 23:45 40.76572 -73.57759 26857 ft 555 kts 44°
2026-05-07 23:45 40.79141 -73.53964 26851 ft 555 kts 44°
2026-05-07 23:46 40.81716 -73.50155 26844 ft 556 kts 44°
2026-05-07 23:46 40.84266 -73.46386 26841 ft 540 kts 44°
2026-05-07 23:46 40.86716 -73.42762 26727 ft 519 kts 44°
2026-05-07 23:46 40.89086 -73.39255 26591 ft 502 kts 43°
2026-05-07 23:47 40.91382 -73.35860 26363 ft 490 kts 43°
2026-05-07 23:47 40.93639 -73.32527 25940 ft 483 kts 43°
2026-05-07 23:47 40.95875 -73.29230 25442 ft 479 kts 44°
2026-05-07 23:47 40.98091 -73.25968 25023 ft 475 kts 44°
2026-05-07 23:48 41.00294 -73.22718 24565 ft 472 kts 44°
2026-05-07 23:48 41.02478 -73.19480 24134 ft 469 kts 44°
2026-05-07 23:48 41.04638 -73.16266 23725 ft 466 kts 44°
2026-05-07 23:48 41.06786 -73.13060 23304 ft 463 kts 45°
2026-05-07 23:49 41.08915 -73.09878 22900 ft 460 kts 45°
2026-05-07 23:49 41.11007 -73.06748 22828 ft 459 kts 45°
2026-05-07 23:49 41.13137 -73.03563 22857 ft 461 kts 45°
2026-05-07 23:49 41.15266 -73.00384 22863 ft 462 kts 45°
2026-05-07 23:50 41.17404 -72.97193 22849 ft 462 kts 45°
2026-05-07 23:50 41.19539 -72.94007 22809 ft 462 kts 45°
2026-05-07 23:50 41.21481 -72.90588 22854 ft 466 kts 57°
2026-05-07 23:50 41.23005 -72.86790 22853 ft 466 kts 62°
2026-05-07 23:51 41.24473 -72.82949 22846 ft 467 kts 62°
2026-05-07 23:51 41.25939 -72.79096 22847 ft 467 kts 62°
2026-05-07 23:51 41.27399 -72.75243 22849 ft 467 kts 62°
2026-05-07 23:51 41.28861 -72.71390 22844 ft 467 kts 62°
2026-05-07 23:52 41.30324 -72.67540 22883 ft 467 kts 62°
2026-05-07 23:52 41.31794 -72.63681 22852 ft 467 kts 62°
2026-05-07 23:52 41.33260 -72.59828 22828 ft 467 kts 63°
2026-05-07 23:52 41.34728 -72.55963 22865 ft 468 kts 63°
2026-05-07 23:53 41.36182 -72.52133 22859 ft 468 kts 63°
2026-05-07 23:53 41.37651 -72.48269 22881 ft 468 kts 63°
2026-05-07 23:53 41.39113 -72.44409 22867 ft 466 kts 63°
2026-05-07 23:53 41.40567 -72.40563 22368 ft 464 kts 63°
2026-05-07 23:54 41.42010 -72.36730 21910 ft 461 kts 63°
2026-05-07 23:54 41.43443 -72.32921 21447 ft 458 kts 63°
2026-05-07 23:54 41.44862 -72.29146 20987 ft 454 kts 63°
2026-05-07 23:54 41.46274 -72.25389 20501 ft 451 kts 63°
2026-05-07 23:55 41.47673 -72.21659 20063 ft 447 kts 63°
2026-05-07 23:55 41.49055 -72.17956 19602 ft 444 kts 64°
2026-05-07 23:55 41.50412 -72.14272 19138 ft 441 kts 64°
2026-05-07 23:55 41.51750 -72.10600 18668 ft 438 kts 64°
2026-05-07 23:56 41.53070 -72.06960 18219 ft 435 kts 65°
2026-05-07 23:56 41.54386 -72.03332 17738 ft 432 kts 64°
2026-05-07 23:56 41.55686 -71.99741 17248 ft 427 kts 65°
2026-05-07 23:56 41.56894 -71.96135 17018 ft 424 kts 68°
2026-05-07 23:57 41.57998 -71.92534 17065 ft 425 kts 69°
2026-05-07 23:57 41.59068 -71.88842 17034 ft 425 kts 70°
2026-05-07 23:57 41.60111 -71.85168 16683 ft 418 kts 70°
2026-05-07 23:57 41.61142 -71.81543 15770 ft 413 kts 69°
2026-05-07 23:58 41.62160 -71.77993 14980 ft 405 kts 69°
2026-05-07 23:58 41.63175 -71.74507 14213 ft 398 kts 68°
2026-05-07 23:58 41.64178 -71.71103 13469 ft 390 kts 67°
2026-05-07 23:58 41.65168 -71.67760 12656 ft 382 kts 67°
2026-05-07 23:59 41.66120 -71.64539 12328 ft 362 kts 67°
2026-05-07 23:59 41.67013 -71.61496 11828 ft 353 kts 66°
2026-05-07 23:59 41.67903 -71.58468 11562 ft 347 kts 66°
2026-05-07 23:59 41.68779 -71.55487 11245 ft 342 kts 66°
2026-05-08 00:00 41.69645 -71.52535 11016 ft 339 kts 67°
2026-05-08 00:00 41.70505 -71.49595 11043 ft 341 kts 67°
2026-05-08 00:00 41.71371 -71.46627 11054 ft 341 kts 67°
2026-05-08 00:00 41.72239 -71.43674 11042 ft 340 kts 64°
2026-05-08 00:01 41.73344 -71.40878 11047 ft 338 kts 57°
2026-05-08 00:01 41.74515 -71.38146 11041 ft 336 kts 57°
2026-05-08 00:01 41.75285 -71.36351 11044 ft 337 kts 57°
2026-05-08 00:01 41.76454 -71.33616 11045 ft 338 kts 57°
2026-05-08 00:02 41.77623 -71.30881 11043 ft 338 kts 57°
2026-05-08 00:02 41.78793 -71.28145 11041 ft 339 kts 57°
2026-05-08 00:02 41.79965 -71.25404 11040 ft 338 kts 57°
2026-05-08 00:02 41.81140 -71.22656 11026 ft 338 kts 57°
2026-05-08 00:03 41.82293 -71.19951 11022 ft 329 kts 57°
2026-05-08 00:03 41.83406 -71.17327 10889 ft 326 kts 57°
2026-05-08 00:03 41.84521 -71.14701 10579 ft 322 kts 57°
2026-05-08 00:03 41.85626 -71.12100 10302 ft 319 kts 57°
2026-05-08 00:04 41.86724 -71.09538 10033 ft 315 kts 57°
2026-05-08 00:04 41.87815 -71.07015 9746 ft 311 kts 56°
2026-05-08 00:04 41.88896 -71.04521 9423 ft 308 kts 56°
2026-05-08 00:04 41.89969 -71.02049 9098 ft 305 kts 57°
2026-05-08 00:05 41.91033 -70.99589 8776 ft 302 kts 57°
2026-05-08 00:05 41.92081 -70.97159 8455 ft 299 kts 57°
2026-05-08 00:05 41.93117 -70.94748 8145 ft 297 kts 57°
2026-05-08 00:05 41.94144 -70.92353 8008 ft 294 kts 57°
2026-05-08 00:06 41.95170 -70.89966 8021 ft 295 kts 57°
2026-05-08 00:06 41.96199 -70.87577 8008 ft 296 kts 57°
2026-05-08 00:06 41.97228 -70.85189 8014 ft 295 kts 57°
2026-05-08 00:06 41.98254 -70.82804 8015 ft 295 kts 57°
2026-05-08 00:07 41.99279 -70.80417 8016 ft 295 kts 57°
2026-05-08 00:07 42.00304 -70.78026 8018 ft 295 kts 57°
2026-05-08 00:07 42.01431 -70.75738 8015 ft 293 kts 47°
2026-05-08 00:07 42.02784 -70.73697 8016 ft 292 kts 45°
2026-05-08 00:08 42.04147 -70.71664 8015 ft 292 kts 45°
2026-05-08 00:08 42.05507 -70.69626 8016 ft 292 kts 45°
2026-05-08 00:08 42.06864 -70.67594 8015 ft 292 kts 45°
2026-05-08 00:08 42.08224 -70.65558 8015 ft 292 kts 45°
2026-05-08 00:09 42.09612 -70.63561 8014 ft 290 kts 38°
2026-05-08 00:09 42.11256 -70.62031 8015 ft 286 kts 23°
2026-05-08 00:09 42.13065 -70.61134 7707 ft 276 kts
2026-05-08 00:09 42.14944 -70.60719 7079 ft 273 kts
2026-05-08 00:10 42.16810 -70.60349 6491 ft 269 kts
2026-05-08 00:10 42.18620 -70.60544 6162 ft 251 kts 347°
2026-05-08 00:10 42.20272 -70.60978 6011 ft 232 kts 346°
2026-05-08 00:10 42.21801 -70.61388 5879 ft 217 kts 346°
2026-05-08 00:11 42.23253 -70.61773 5572 ft 209 kts 346°
2026-05-08 00:11 42.24672 -70.62149 5141 ft 207 kts 346°
2026-05-08 00:11 42.26078 -70.62517 4743 ft 204 kts 346°
2026-05-08 00:11 42.27467 -70.62877 4280 ft 204 kts 346°
2026-05-08 00:12 42.28855 -70.63231 4008 ft 201 kts 346°
2026-05-08 00:12 42.30236 -70.63579 4004 ft 203 kts 346°
2026-05-08 00:12 42.31623 -70.63928 4007 ft 203 kts 346°
2026-05-08 00:12 42.33015 -70.64284 4007 ft 203 kts 346°
2026-05-08 00:13 42.34403 -70.64642 4009 ft 204 kts 346°
2026-05-08 00:13 42.35793 -70.65001 4010 ft 203 kts 346°
2026-05-08 00:13 42.37171 -70.65355 3977 ft 195 kts 346°
2026-05-08 00:13 42.38462 -70.65753 3576 ft 187 kts 335°
2026-05-08 00:14 42.39427 -70.66815 3154 ft 179 kts 298°
2026-05-08 00:14 42.39858 -70.68334 3013 ft 168 kts 287°
2026-05-08 00:14 42.40170 -70.69821 3011 ft 165 kts 286°
2026-05-08 00:14 42.40393 -70.71328 3009 ft 163 kts 271°
2026-05-08 00:15 42.40275 -70.72850 3025 ft 163 kts 265°
2026-05-08 00:15 42.40169 -70.74376 3019 ft 163 kts 265°
2026-05-08 00:15 42.39985 -70.75905 3017 ft 165 kts 262°
2026-05-08 00:15 42.39752 -70.77419 3015 ft 163 kts 261°
2026-05-08 00:16 42.39508 -70.78883 2653 ft 158 kts 259°
2026-05-08 00:16 42.39258 -70.80338 2048 ft 159 kts 260°
2026-05-08 00:16 42.39005 -70.81794 1736 ft 159 kts 261°
2026-05-08 00:16 42.38750 -70.83259 1723 ft 161 kts 260°
2026-05-08 00:17 42.38493 -70.84728 1721 ft 160 kts 260°
2026-05-08 00:17 42.38236 -70.86188 1720 ft 154 kts 260°
2026-05-08 00:17 42.38007 -70.87491 1714 ft 133 kts 261°
2026-05-08 00:17 42.37768 -70.88676 1565 ft 127 kts 258°
2026-05-08 00:18 42.37530 -70.89796 1313 ft 120 kts 259°
2026-05-08 00:18 42.37369 -70.90917 1059 ft 122 kts 259°
2026-05-08 00:18 42.37180 -70.92001 889 ft 120 kts 259°
2026-05-08 00:18 42.36994 -70.93154 723 ft 128 kts 259°
2026-05-08 00:19 42.36792 -70.94353 638 ft 130 kts 257°
2026-05-08 00:19 42.36578 -70.95559 549 ft 128 kts 259°
2026-05-08 00:19 42.36380 -70.96708 373 ft 123 kts 257°
2026-05-08 00:19 42.36181 -70.97842 224 ft 124 kts 257°
2026-05-08 00:20 42.35984 -70.98973 52 ft 123 kts 257°
2026-05-08 00:20 42.35822 -70.99933 26 ft 78 kts 256°
2026-05-08 00:20 42.35757 -71.00295 28 ft 9 kts 257°
2026-05-08 00:20 42.35759 -71.00420 25 ft 19 kts 277°
2026-05-08 00:21 42.35781 -71.00645 26 ft 24 kts 276°
2026-05-08 00:21 42.35809 -71.00893 26 ft 28 kts 280°
2026-05-08 00:21 42.35833 -71.01131 30 ft 24 kts 277°
2026-05-08 00:21 42.35848 -71.01277 28 ft 9 kts 277°
2026-05-08 00:22 42.35850 -71.01291 28 ft 0 kts 277°
2026-05-08 00:22 42.35857 -71.01367 28 ft 17 kts 278°
2026-05-08 00:22 42.35887 -71.01580 26 ft 26 kts 280°
2026-05-08 00:22 42.35916 -71.01795 26 ft 18 kts 282°
2026-05-08 00:23 42.35976 -71.01875 27 ft 11 kts 312°
2026-05-08 00:23 42.36019 -71.01866 27 ft 0 kts 30°